owner,sensor,date,latitude,longitude,vertical_datum,direction_of_sea_water_velocity,sea_water_speed,upward_sea_water_velocity,qcFlag 
TABS,ioos:station:wmo:42048:1,2001-07-01T00:00:00Z,27.9396,-96.8429,2.0,77.32879663,6.108780566,-99999.0,'11133222,11111222,99999999' 
TABS,ioos:station:wmo:42048:1,2001-07-01T00:30:00Z,27.9396,-96.8429,2.0,83.9488557,2.845856637,-99999.0,'11133222,11111222,99999999' 
TABS,ioos:station:wmo:42048:1,2001-07-01T01:00:00Z,27.9396,-96.8429,2.0,86.79649654,2.684194479,-99999.0,'11133222,11111222,99999999' 
TABS,ioos:station:wmo:42048:1,2001-07-01T01:30:00Z,27.9396,-96.8429,2.0,93.20350346,2.684194479,-99999.0,'11133222,11111222,99999999' 
TABS,ioos:station:wmo:42048:1,2001-07-01T02:00:00Z,27.9396,-96.8429,2.0,71.43691632,1.413541651,-99999.0,'11133222,11111222,99999999' 
TABS,ioos:station:wmo:42048:1,2001-07-01T02:30:00Z,27.9396,-96.8429,2.0,98.20719722,1.050761629,-99999.0,'11133222,11111222,99999999' 
TABS,ioos:station:wmo:42048:1,2001-07-01T03:00:00Z,27.9396,-96.8429,2.0,179.9997895,1.19,-99999.0,'11133222,11111222,99999999' 
TABS,ioos:station:wmo:42048:1,2001-07-01T03:30:00Z,27.9396,-96.8429,2.0,236.4083758,1.60863296,-99999.0,'11133222,11111222,99999999' 
TABS,ioos:station:wmo:42048:1,2001-07-01T04:00:00Z,27.9396,-96.8429,2.0,266.7960756,2.684194479,-99999.0,'11133222,11111222,99999999' 
TABS,ioos:station:wmo:42048:1,2001-07-01T04:30:00Z,27.9396,-96.8429,2.0,245.7138107,1.799222054,-99999.0,'11133222,11111222,99999999' 
TABS,ioos:station:wmo:42048:1,2001-07-01T05:00:00Z,27.9396,-96.8429,2.0,255.4535644,3.543585755,-99999.0,'11133222,11111222,99999999' 
TABS,ioos:station:wmo:42048:1,2001-07-01T05:30:00Z,27.9396,-96.8429,2.0,256.0387078,3.688970046,-99999.0,'11133222,11111222,99999999' 
TABS,ioos:station:wmo:42048:1,2001-07-01T06:00:00Z,27.9396,-96.8429,2.0,228.7116494,3.167412193,-99999.0,'11133222,11111222,99999999' 
TABS,ioos:station:wmo:42048:1,2001-07-01T06:30:00Z,27.9396,-96.8429,2.0,230.2255995,4.657982396,-99999.0,'11133222,11111222,99999999' 
TABS,ioos:station:wmo:42048:1,2001-07-01T07:00:00Z,27.9396,-96.8429,2.0,254.9403406,2.309307255,-99999.0,'11133222,11111222,99999999' 
TABS,ioos:station:wmo:42048:1,2001-07-01T07:30:00Z,27.9396,-96.8429,2.0,227.1312926,2.851613578,-99999.0,'11133222,11111222,99999999' 
TABS,ioos:station:wmo:42048:1,2001-07-01T08:00:00Z,27.9396,-96.8429,2.0,146.0137019,1.073359213,-99999.0,'11133222,11111222,99999999' 
TABS,ioos:station:wmo:42048:1,2001-07-01T08:30:00Z,27.9396,-96.8429,2.0,208.0855447,2.527647127,-99999.0,'11133222,11111222,99999999' 
TABS,ioos:station:wmo:42048:1,2001-07-01T09:00:00Z,27.9396,-96.8429,2.0,158.0659558,1.606268969,-99999.0,'11133222,11111222,99999999' 
TABS,ioos:station:wmo:42048:1,2001-07-01T09:30:00Z,27.9396,-96.8429,2.0,186.7621634,2.547724475,-99999.0,'11133222,11111222,99999999' 
TABS,ioos:station:wmo:42048:1,2001-07-01T10:00:00Z,27.9396,-96.8429,2.0,108.5308782,1.887882412,-99999.0,'11133222,11111222,99999999' 
TABS,ioos:station:wmo:42048:1,2001-07-01T10:30:00Z,27.9396,-96.8429,2.0,336.6488862,14.27962535,-99999.0,'11111222,11111222,99999999' 
TABS,ioos:station:wmo:42048:1,2001-07-01T11:00:00Z,27.9396,-96.8429,2.0,345.7159299,15.68492588,-99999.0,'11111222,11111222,99999999' 
TABS,ioos:station:wmo:42048:1,2001-07-01T11:30:00Z,27.9396,-96.8429,2.0,354.0796036,23.07307738,-99999.0,'11111222,11111222,99999999' 
TABS,ioos:station:wmo:42048:1,2001-07-01T12:00:00Z,27.9396,-96.8429,2.0,345.8006407,12.7598511,-99999.0,'11111222,11111222,99999999' 
TABS,ioos:station:wmo:42048:1,2001-07-01T12:30:00Z,27.9396,-96.8429,2.0,137.3058561,10.54442981,-99999.0,'11111222,11111222,99999999' 
TABS,ioos:station:wmo:42048:1,2001-07-01T13:00:00Z,27.9396,-96.8429,2.0,111.077943,11.17789336,-99999.0,'11111222,11111222,99999999' 
TABS,ioos:station:wmo:42048:1,2001-07-01T13:30:00Z,27.9396,-96.8429,2.0,107.2929511,9.520346632,-99999.0,'11133222,11111222,99999999' 
TABS,ioos:station:wmo:42048:1,2001-07-01T14:00:00Z,27.9396,-96.8429,2.0,71.82083735,20.54552263,-99999.0,'11111222,11111222,99999999' 
TABS,ioos:station:wmo:42048:1,2001-07-01T14:30:00Z,27.9396,-96.8429,2.0,80.89700788,15.99140394,-99999.0,'11111222,11111222,99999999' 
TABS,ioos:station:wmo:42048:1,2001-07-01T15:00:00Z,27.9396,-96.8429,2.0,90.0,10.28,-99999.0,'11111222,11111222,99999999' 
TABS,ioos:station:wmo:42048:1,2001-07-01T15:30:00Z,27.9396,-96.8429,2.0,90.0,11.03,-99999.0,'11111222,11111222,99999999' 
TABS,ioos:station:wmo:42048:1,2001-07-01T16:00:00Z,27.9396,-96.8429,2.0,85.4120326,13.00166143,-99999.0,'11111222,11111222,99999999' 
TABS,ioos:station:wmo:42048:1,2001-07-01T16:30:00Z,27.9396,-96.8429,2.0,85.29215876,14.4989172,-99999.0,'11111222,11111222,99999999' 
TABS,ioos:station:wmo:42048:1,2001-07-01T17:00:00Z,27.9396,-96.8429,2.0,81.85808605,13.69807286,-99999.0,'11111222,11111222,99999999' 
TABS,ioos:station:wmo:42048:1,2001-07-01T17:30:00Z,27.9396,-96.8429,2.0,80.52285841,12.69324624,-99999.0,'11111222,11111222,99999999' 
TABS,ioos:station:wmo:42048:1,2001-07-01T18:00:00Z,27.9396,-96.8429,2.0,83.47091494,15.74209961,-99999.0,'11111222,11111222,99999999' 
TABS,ioos:station:wmo:42048:1,2001-07-01T18:30:00Z,27.9396,-96.8429,2.0,93.02351279,14.02952957,-99999.0,'11111222,11111222,99999999' 
TABS,ioos:station:wmo:42048:1,2001-07-01T19:00:00Z,27.9396,-96.8429,2.0,97.90610672,15.19442661,-99999.0,'11111222,11111222,99999999' 
TABS,ioos:station:wmo:42048:1,2001-07-01T19:30:00Z,27.9396,-96.8429,2.0,107.2736665,14.04339702,-99999.0,'11111222,11111222,99999999' 
TABS,ioos:station:wmo:42048:1,2001-07-01T20:00:00Z,27.9396,-96.8429,2.0,104.789275,14.02462121,-99999.0,'11111222,11111222,99999999' 
TABS,ioos:station:wmo:42048:1,2001-07-01T20:30:00Z,27.9396,-96.8429,2.0,110.5559972,12.73056558,-99999.0,'11111222,11111222,99999999' 
TABS,ioos:station:wmo:42048:1,2001-07-01T21:00:00Z,27.9396,-96.8429,2.0,107.1234759,12.15898022,-99999.0,'11111222,11111222,99999999' 
TABS,ioos:station:wmo:42048:1,2001-07-01T21:30:00Z,27.9396,-96.8429,2.0,105.1806852,10.80711802,-99999.0,'11111222,11111222,99999999' 
TABS,ioos:station:wmo:42048:1,2001-07-01T22:00:00Z,27.9396,-96.8429,2.0,101.2901761,11.3904258,-99999.0,'11111222,11111222,99999999' 
TABS,ioos:station:wmo:42048:1,2001-07-01T22:30:00Z,27.9396,-96.8429,2.0,110.7095434,11.79193792,-99999.0,'11111222,11111222,99999999' 
TABS,ioos:station:wmo:42048:1,2001-07-01T23:00:00Z,27.9396,-96.8429,2.0,119.7185203,10.81210895,-99999.0,'11111222,11111222,99999999' 
TABS,ioos:station:wmo:42048:1,2001-07-01T23:30:00Z,27.9396,-96.8429,2.0,112.5807847,12.42231057,-99999.0,'11111222,11111222,99999999' 
TABS,ioos:station:wmo:42048:1,2001-07-02T00:00:00Z,27.9396,-96.8429,2.0,121.1401226,8.353735691,-99999.0,'11133222,11111222,99999999' 
TABS,ioos:station:wmo:42048:1,2001-07-02T00:30:00Z,27.9396,-96.8429,2.0,129.2512448,4.235658154,-99999.0,'11133222,11111222,99999999' 
TABS,ioos:station:wmo:42048:1,2001-07-02T01:00:00Z,27.9396,-96.8429,2.0,125.2797016,3.099193443,-99999.0,'11133222,11111222,99999999' 
TABS,ioos:station:wmo:42048:1,2001-07-02T01:30:00Z,27.9396,-96.8429,2.0,141.3869969,1.906882272,-99999.0,'11133222,11111222,99999999' 
TABS,ioos:station:wmo:42048:1,2001-07-02T02:00:00Z,27.9396,-96.8429,2.0,159.9046053,1.746310396,-99999.0,'11133222,11111222,99999999' 
TABS,ioos:station:wmo:42048:1,2001-07-02T02:30:00Z,27.9396,-96.8429,2.0,149.1493378,1.735569071,-99999.0,'11133222,11111222,99999999' 
TABS,ioos:station:wmo:42048:1,2001-07-02T03:00:00Z,27.9396,-96.8429,2.0,147.3339714,2.482680004,-99999.0,'11133222,11111222,99999999' 
TABS,ioos:station:wmo:42048:1,2001-07-02T03:30:00Z,27.9396,-96.8429,2.0,232.4739181,2.446160256,-99999.0,'11133222,11111222,99999999' 
TABS,ioos:station:wmo:42048:1,2001-07-02T04:00:00Z,27.9396,-96.8429,2.0,214.4308286,3.431107693,-99999.0,'11133222,11111222,99999999' 
TABS,ioos:station:wmo:42048:1,2001-07-02T04:30:00Z,27.9396,-96.8429,2.0,212.504802,3.889280139,-99999.0,'11133222,11111222,99999999' 
TABS,ioos:station:wmo:42048:1,2001-07-02T05:00:00Z,27.9396,-96.8429,2.0,224.9996843,2.955706345,-99999.0,'11133222,11111222,99999999' 
TABS,ioos:station:wmo:42048:1,2001-07-02T05:30:00Z,27.9396,-96.8429,2.0,204.3822394,5.401786741,-99999.0,'11133222,11111222,99999999' 
TABS,ioos:station:wmo:42048:1,2001-07-02T06:00:00Z,27.9396,-96.8429,2.0,220.4330494,6.66087832,-99999.0,'11133222,11111222,99999999' 
TABS,ioos:station:wmo:42048:1,2001-07-02T06:30:00Z,27.9396,-96.8429,2.0,227.8812613,8.439383864,-99999.0,'11133222,11111222,99999999' 
TABS,ioos:station:wmo:42048:1,2001-07-02T07:00:00Z,27.9396,-96.8429,2.0,222.6182509,7.487656509,-99999.0,'11133222,11111222,99999999' 
TABS,ioos:station:wmo:42048:1,2001-07-02T07:30:00Z,27.9396,-96.8429,2.0,234.1802048,9.927668407,-99999.0,'11133222,11111222,99999999' 
TABS,ioos:station:wmo:42048:1,2001-07-02T08:00:00Z,27.9396,-96.8429,2.0,262.5412436,9.16756238,-99999.0,'11133222,11111222,99999999' 
TABS,ioos:station:wmo:42048:1,2001-07-02T08:30:00Z,27.9396,-96.8429,2.0,266.9110823,8.352131464,-99999.0,'11133222,11111222,99999999' 
TABS,ioos:station:wmo:42048:1,2001-07-02T09:00:00Z,27.9396,-96.8429,2.0,258.4634477,7.45051005,-99999.0,'11133222,11111222,99999999' 
TABS,ioos:station:wmo:42048:1,2001-07-02T09:30:00Z,27.9396,-96.8429,2.0,237.0474879,3.015045605,-99999.0,'11133222,11111222,99999999' 
TABS,ioos:station:wmo:42048:1,2001-07-02T10:00:00Z,27.9396,-96.8429,2.0,190.9804139,5.45996337,-99999.0,'11133222,11111222,99999999' 
TABS,ioos:station:wmo:42048:1,2001-07-02T10:30:00Z,27.9396,-96.8429,2.0,190.9804139,5.45996337,-99999.0,'11133222,11111222,99999999' 
TABS,ioos:station:wmo:42048:1,2001-07-02T11:00:00Z,27.9396,-96.8429,2.0,187.9069338,4.361467643,-99999.0,'11133222,11111222,99999999' 
TABS,ioos:station:wmo:42048:1,2001-07-02T11:30:00Z,27.9396,-96.8429,2.0,179.9997895,5.07,-99999.0,'11133222,11111222,99999999' 
TABS,ioos:station:wmo:42048:1,2001-07-02T12:00:00Z,27.9396,-96.8429,2.0,182.9556315,5.817740111,-99999.0,'11133222,11111222,99999999' 
TABS,ioos:station:wmo:42048:1,2001-07-02T12:30:00Z,27.9396,-96.8429,2.0,181.51787,5.661987284,-99999.0,'11133222,11111222,99999999' 
TABS,ioos:station:wmo:42048:1,2001-07-02T13:00:00Z,27.9396,-96.8429,2.0,191.9353642,5.02871753,-99999.0,'11133222,11111222,99999999' 
TABS,ioos:station:wmo:42048:1,2001-07-02T13:30:00Z,27.9396,-96.8429,2.0,189.4274175,5.433387525,-99999.0,'11133222,11111222,99999999' 
TABS,ioos:station:wmo:42048:1,2001-07-02T14:00:00Z,27.9396,-96.8429,2.0,199.8095268,3.953985331,-99999.0,'11133222,11111222,99999999' 
TABS,ioos:station:wmo:42048:1,2001-07-02T14:30:00Z,27.9396,-96.8429,2.0,182.6181929,6.566856173,-99999.0,'11133222,11111222,99999999' 
TABS,ioos:station:wmo:42048:1,2001-07-02T15:00:00Z,27.9396,-96.8429,2.0,272.9234775,17.45270753,-99999.0,'11111222,11111222,99999999' 
TABS,ioos:station:wmo:42048:1,2001-07-02T15:30:00Z,27.9396,-96.8429,2.0,321.0422876,9.001977561,-99999.0,'11133222,11111222,99999999' 
TABS,ioos:station:wmo:42048:1,2001-07-02T16:00:00Z,27.9396,-96.8429,2.0,309.6379882,13.54379932,-99999.0,'11111222,11111222,99999999' 
TABS,ioos:station:wmo:42048:1,2001-07-02T16:30:00Z,27.9396,-96.8429,2.0,0.000210459,9.54,-99999.0,'11133222,11111222,99999999' 
TABS,ioos:station:wmo:42048:1,2001-07-02T17:00:00Z,27.9396,-96.8429,2.0,30.36723106,7.081560562,-99999.0,'11133222,11111222,99999999' 
TABS,ioos:station:wmo:42048:1,2001-07-02T17:30:00Z,27.9396,-96.8429,2.0,31.20305212,5.752112655,-99999.0,'11133222,11111222,99999999' 
TABS,ioos:station:wmo:42048:1,2001-07-02T18:00:00Z,27.9396,-96.8429,2.0,41.83408825,11.39474001,-99999.0,'11111222,11111222,99999999' 
TABS,ioos:station:wmo:42048:1,2001-07-02T18:30:00Z,27.9396,-96.8429,2.0,98.12154068,9.485130468,-99999.0,'11133222,11111222,99999999' 
TABS,ioos:station:wmo:42048:1,2001-07-02T19:00:00Z,27.9396,-96.8429,2.0,117.5375069,11.59344642,-99999.0,'11111222,11111222,99999999' 
TABS,ioos:station:wmo:42048:1,2001-07-02T19:30:00Z,27.9396,-96.8429,2.0,140.0289566,20.40788328,-99999.0,'11111222,11111222,99999999' 
TABS,ioos:station:wmo:42048:1,2001-07-02T20:00:00Z,27.9396,-96.8429,2.0,149.8455135,23.4307597,-99999.0,'11111222,11111222,99999999' 
TABS,ioos:station:wmo:42048:1,2001-07-02T20:30:00Z,27.9396,-96.8429,2.0,156.6996894,22.22233561,-99999.0,'11111222,11111222,99999999' 
TABS,ioos:station:wmo:42048:1,2001-07-02T21:00:00Z,27.9396,-96.8429,2.0,145.2580866,27.19875916,-99999.0,'11111222,11111222,99999999' 
TABS,ioos:station:wmo:42048:1,2001-07-02T21:30:00Z,27.9396,-96.8429,2.0,152.1179927,28.99604283,-99999.0,'11111222,11111222,99999999' 
TABS,ioos:station:wmo:42048:1,2001-07-02T22:00:00Z,27.9396,-96.8429,2.0,157.1594281,28.77636704,-99999.0,'11111222,11111222,99999999' 
TABS,ioos:station:wmo:42048:1,2001-07-02T22:30:00Z,27.9396,-96.8429,2.0,154.814746,30.45513421,-99999.0,'11111222,11111222,99999999' 
TABS,ioos:station:wmo:42048:1,2001-07-02T23:00:00Z,27.9396,-96.8429,2.0,156.6324595,26.29685342,-99999.0,'11111222,11111222,99999999' 
TABS,ioos:station:wmo:42048:1,2001-07-02T23:30:00Z,27.9396,-96.8429,2.0,160.6657287,27.0028517,-99999.0,'11111222,11111222,99999999' 
TABS,ioos:station:wmo:42048:1,2001-07-03T00:00:00Z,27.9396,-96.8429,2.0,157.1594281,28.77636704,-99999.0,'11111222,11111222,99999999' 
TABS,ioos:station:wmo:42048:1,2001-07-03T00:30:00Z,27.9396,-96.8429,2.0,166.7318207,29.84669161,-99999.0,'11111222,11111222,99999999' 
TABS,ioos:station:wmo:42048:1,2001-07-03T01:00:00Z,27.9396,-96.8429,2.0,179.7025128,28.91038914,-99999.0,'11111222,11111222,99999999' 
TABS,ioos:station:wmo:42048:1,2001-07-03T01:30:00Z,27.9396,-96.8429,2.0,191.1196677,27.79177036,-99999.0,'11111222,11111222,99999999' 
TABS,ioos:station:wmo:42048:1,2001-07-03T02:00:00Z,27.9396,-96.8429,2.0,201.8610611,28.41325923,-99999.0,'11111222,11111222,99999999' 
TABS,ioos:station:wmo:42048:1,2001-07-03T02:30:00Z,27.9396,-96.8429,2.0,214.5082318,28.93056688,-99999.0,'11111222,11111222,99999999' 
TABS,ioos:station:wmo:42048:1,2001-07-03T03:00:00Z,27.9396,-96.8429,2.0,214.5082318,28.93056688,-99999.0,'11111222,11111222,99999999' 
TABS,ioos:station:wmo:42048:1,2001-07-03T03:30:00Z,27.9396,-96.8429,2.0,219.8817924,30.67638342,-99999.0,'11111222,11111222,99999999' 
TABS,ioos:station:wmo:42048:1,2001-07-03T04:00:00Z,27.9396,-96.8429,2.0,225.3766239,32.24476702,-99999.0,'11111222,11111222,99999999' 
TABS,ioos:station:wmo:42048:1,2001-07-03T04:30:00Z,27.9396,-96.8429,2.0,232.9306439,35.104212,-99999.0,'11111222,11111222,99999999' 
TABS,ioos:station:wmo:42048:1,2001-07-03T05:00:00Z,27.9396,-96.8429,2.0,237.9064681,41.50214573,-99999.0,'11111222,11111222,99999999' 
TABS,ioos:station:wmo:42048:1,2001-07-03T05:30:00Z,27.9396,-96.8429,2.0,235.5145587,41.57600871,-99999.0,'11111222,11111222,99999999' 
TABS,ioos:station:wmo:42048:1,2001-07-03T06:00:00Z,27.9396,-96.8429,2.0,238.8004099,37.97182245,-99999.0,'11111222,11111222,99999999' 
TABS,ioos:station:wmo:42048:1,2001-07-03T06:30:00Z,27.9396,-96.8429,2.0,240.0606234,34.04276869,-99999.0,'11111222,11111222,99999999' 
TABS,ioos:station:wmo:42048:1,2001-07-03T07:00:00Z,27.9396,-96.8429,2.0,240.5885074,32.15406973,-99999.0,'11111222,11111222,99999999' 
TABS,ioos:station:wmo:42048:1,2001-07-03T07:30:00Z,27.9396,-96.8429,2.0,245.1232592,33.99405242,-99999.0,'11111222,11111222,99999999' 
TABS,ioos:station:wmo:42048:1,2001-07-03T08:00:00Z,27.9396,-96.8429,2.0,254.4211659,32.17187747,-99999.0,'11111222,11111222,99999999' 
TABS,ioos:station:wmo:42048:1,2001-07-03T08:30:00Z,27.9396,-96.8429,2.0,260.4586323,32.33731127,-99999.0,'11111222,11111222,99999999' 
TABS,ioos:station:wmo:42048:1,2001-07-03T09:00:00Z,27.9396,-96.8429,2.0,261.2102537,29.2535297,-99999.0,'11111222,11111222,99999999' 
TABS,ioos:station:wmo:42048:1,2001-07-03T09:30:00Z,27.9396,-96.8429,2.0,265.8837533,31.07013035,-99999.0,'11111222,11111222,99999999' 
TABS,ioos:station:wmo:42048:1,2001-07-03T10:00:00Z,27.9396,-96.8429,2.0,261.911718,30.7054132,-99999.0,'11111222,11111222,99999999' 
TABS,ioos:station:wmo:42048:1,2001-07-03T10:30:00Z,27.9396,-96.8429,2.0,265.3097573,30.94360192,-99999.0,'11111222,11111222,99999999' 
TABS,ioos:station:wmo:42048:1,2001-07-03T11:00:00Z,27.9396,-96.8429,2.0,263.2305149,26.55510874,-99999.0,'11111222,11111222,99999999' 
TABS,ioos:station:wmo:42048:1,2001-07-03T11:30:00Z,27.9396,-96.8429,2.0,264.3620494,25.75456853,-99999.0,'11111222,11111222,99999999' 
TABS,ioos:station:wmo:42048:1,2001-07-03T12:00:00Z,27.9396,-96.8429,2.0,260.4850054,25.2270351,-99999.0,'11111222,11111222,99999999' 
TABS,ioos:station:wmo:42048:1,2001-07-03T12:30:00Z,27.9396,-96.8429,2.0,259.5089765,24.5503666,-99999.0,'11111222,11111222,99999999' 
TABS,ioos:station:wmo:42048:1,2001-07-03T13:00:00Z,27.9396,-96.8429,2.0,259.9541374,23.90649493,-99999.0,'11111222,11111222,99999999' 
TABS,ioos:station:wmo:42048:1,2001-07-03T13:30:00Z,27.9396,-96.8429,2.0,260.7217106,24.0040205,-99999.0,'11111222,11111222,99999999' 
TABS,ioos:station:wmo:42048:1,2001-07-03T14:00:00Z,27.9396,-96.8429,2.0,250.7120249,22.10044343,-99999.0,'11111222,11111222,99999999' 
TABS,ioos:station:wmo:42048:1,2001-07-03T14:30:00Z,27.9396,-96.8429,2.0,258.1208255,23.90185139,-99999.0,'11111222,11111222,99999999' 
TABS,ioos:station:wmo:42048:1,2001-07-03T15:00:00Z,27.9396,-96.8429,2.0,257.4212869,22.59223097,-99999.0,'11111222,11111222,99999999' 
TABS,ioos:station:wmo:42048:1,2001-07-03T15:30:00Z,27.9396,-96.8429,2.0,265.3897677,22.2720475,-99999.0,'11111222,11111222,99999999' 
TABS,ioos:station:wmo:42048:1,2001-07-03T16:00:00Z,27.9396,-96.8429,2.0,250.8238586,21.76777664,-99999.0,'11111222,11111222,99999999' 
TABS,ioos:station:wmo:42048:1,2001-07-03T16:30:00Z,27.9396,-96.8429,2.0,242.9280715,22.25869044,-99999.0,'11111222,11111222,99999999' 
TABS,ioos:station:wmo:42048:1,2001-07-03T17:00:00Z,27.9396,-96.8429,2.0,244.2358755,19.18733958,-99999.0,'11111222,11111222,99999999' 
TABS,ioos:station:wmo:42048:1,2001-07-03T17:30:00Z,27.9396,-96.8429,2.0,228.0459039,17.83014302,-99999.0,'11111222,11111222,99999999' 
TABS,ioos:station:wmo:42048:1,2001-07-03T18:00:00Z,27.9396,-96.8429,2.0,226.6830274,17.81263596,-99999.0,'11111222,11111222,99999999' 
TABS,ioos:station:wmo:42048:1,2001-07-03T18:30:00Z,27.9396,-96.8429,2.0,220.4869256,17.43473544,-99999.0,'11111222,11111222,99999999' 
TABS,ioos:station:wmo:42048:1,2001-07-03T19:00:00Z,27.9396,-96.8429,2.0,220.2200529,18.92434675,-99999.0,'11111222,11111222,99999999' 
TABS,ioos:station:wmo:42048:1,2001-07-03T19:30:00Z,27.9396,-96.8429,2.0,211.7788831,21.20966289,-99999.0,'11111222,11111222,99999999' 
TABS,ioos:station:wmo:42048:1,2001-07-03T20:00:00Z,27.9396,-96.8429,2.0,215.3521904,22.65794563,-99999.0,'11111222,11111222,99999999' 
TABS,ioos:station:wmo:42048:1,2001-07-03T20:30:00Z,27.9396,-96.8429,2.0,207.3770443,23.65997675,-99999.0,'11111222,11111222,99999999' 
TABS,ioos:station:wmo:42048:1,2001-07-03T21:00:00Z,27.9396,-96.8429,2.0,204.0326409,25.61009567,-99999.0,'11111222,11111222,99999999' 
TABS,ioos:station:wmo:42048:1,2001-07-03T21:30:00Z,27.9396,-96.8429,2.0,202.6956958,26.64310042,-99999.0,'11111222,11111222,99999999' 
TABS,ioos:station:wmo:42048:1,2001-07-03T22:00:00Z,27.9396,-96.8429,2.0,195.7059824,28.62893816,-99999.0,'11111222,11111222,99999999' 
TABS,ioos:station:wmo:42048:1,2001-07-03T22:30:00Z,27.9396,-96.8429,2.0,196.8036626,29.88614562,-99999.0,'11111222,11111222,99999999' 
TABS,ioos:station:wmo:42048:1,2001-07-03T23:00:00Z,27.9396,-96.8429,2.0,200.6547309,29.14328911,-99999.0,'11111222,11111222,99999999' 
TABS,ioos:station:wmo:42048:1,2001-07-03T23:30:00Z,27.9396,-96.8429,2.0,202.0217791,29.41621662,-99999.0,'11111222,11111222,99999999' 
TABS,ioos:station:wmo:42048:1,2001-07-04T00:00:00Z,27.9396,-96.8429,2.0,208.1812613,30.59711424,-99999.0,'11111222,11111222,99999999' 
TABS,ioos:station:wmo:42048:1,2001-07-04T00:30:00Z,27.9396,-96.8429,2.0,205.2289641,31.46108231,-99999.0,'11111222,11111222,99999999' 
TABS,ioos:station:wmo:42048:1,2001-07-04T01:00:00Z,27.9396,-96.8429,2.0,208.8935238,31.1473177,-99999.0,'11111222,11111222,99999999' 
TABS,ioos:station:wmo:42048:1,2001-07-04T01:30:00Z,27.9396,-96.8429,2.0,211.2965097,30.68504522,-99999.0,'11111222,11111222,99999999' 
TABS,ioos:station:wmo:42048:1,2001-07-04T02:00:00Z,27.9396,-96.8429,2.0,213.5207007,29.13575467,-99999.0,'11111222,11111222,99999999' 
TABS,ioos:station:wmo:42048:1,2001-07-04T02:30:00Z,27.9396,-96.8429,2.0,217.4350002,30.40148023,-99999.0,'11111222,11111222,99999999' 
TABS,ioos:station:wmo:42048:1,2001-07-04T03:00:00Z,27.9396,-96.8429,2.0,218.6138098,29.37160874,-99999.0,'11111222,11111222,99999999' 
TABS,ioos:station:wmo:42048:1,2001-07-04T03:30:00Z,27.9396,-96.8429,2.0,219.5211285,27.62557692,-99999.0,'11111222,11111222,99999999' 
TABS,ioos:station:wmo:42048:1,2001-07-04T04:00:00Z,27.9396,-96.8429,2.0,219.5211285,27.62557692,-99999.0,'11111222,11111222,99999999' 
TABS,ioos:station:wmo:42048:1,2001-07-04T04:30:00Z,27.9396,-96.8429,2.0,221.949931,27.64460164,-99999.0,'11111222,11111222,99999999' 
TABS,ioos:station:wmo:42048:1,2001-07-04T05:00:00Z,27.9396,-96.8429,2.0,222.5077191,29.11083132,-99999.0,'11111222,11111222,99999999' 
TABS,ioos:station:wmo:42048:1,2001-07-04T05:30:00Z,27.9396,-96.8429,2.0,221.9232625,25.42885172,-99999.0,'11111222,11111222,99999999' 
TABS,ioos:station:wmo:42048:1,2001-07-04T06:00:00Z,27.9396,-96.8429,2.0,223.2254768,27.40645544,-99999.0,'11111222,11111222,99999999' 
TABS,ioos:station:wmo:42048:1,2001-07-04T06:30:00Z,27.9396,-96.8429,2.0,226.9542403,24.67116738,-99999.0,'11111222,11111222,99999999' 
TABS,ioos:station:wmo:42048:1,2001-07-04T07:00:00Z,27.9396,-96.8429,2.0,223.7931305,25.18565663,-99999.0,'11111222,11111222,99999999' 
TABS,ioos:station:wmo:42048:1,2001-07-04T07:30:00Z,27.9396,-96.8429,2.0,230.4212264,24.54742349,-99999.0,'11111222,11111222,99999999' 
TABS,ioos:station:wmo:42048:1,2001-07-04T08:00:00Z,27.9396,-96.8429,2.0,228.822826,23.75508367,-99999.0,'11111222,11111222,99999999' 
TABS,ioos:station:wmo:42048:1,2001-07-04T08:30:00Z,27.9396,-96.8429,2.0,228.3846647,23.11321916,-99999.0,'11111222,11111222,99999999' 
TABS,ioos:station:wmo:42048:1,2001-07-04T09:00:00Z,27.9396,-96.8429,2.0,228.0735118,21.62615546,-99999.0,'11111222,11111222,99999999' 
TABS,ioos:station:wmo:42048:1,2001-07-04T09:30:00Z,27.9396,-96.8429,2.0,227.950049,20.46958964,-99999.0,'11111222,11111222,99999999' 
TABS,ioos:station:wmo:42048:1,2001-07-04T10:00:00Z,27.9396,-96.8429,2.0,227.5615392,18.98357711,-99999.0,'11111222,11111222,99999999' 
TABS,ioos:station:wmo:42048:1,2001-07-04T10:30:00Z,27.9396,-96.8429,2.0,222.4020824,18.56648863,-99999.0,'11111222,11111222,99999999' 
TABS,ioos:station:wmo:42048:1,2001-07-04T11:00:00Z,27.9396,-96.8429,2.0,227.0120079,17.9220674,-99999.0,'11111222,11111222,99999999' 
TABS,ioos:station:wmo:42048:1,2001-07-04T11:30:00Z,27.9396,-96.8429,2.0,226.7214798,14.12022663,-99999.0,'11111222,11111222,99999999' 
TABS,ioos:station:wmo:42048:1,2001-07-04T12:00:00Z,27.9396,-96.8429,2.0,228.9878284,13.6235825,-99999.0,'11111222,11111222,99999999' 
TABS,ioos:station:wmo:42048:1,2001-07-04T12:30:00Z,27.9396,-96.8429,2.0,224.5149611,12.53745189,-99999.0,'11111222,11111222,99999999' 
TABS,ioos:station:wmo:42048:1,2001-07-04T13:00:00Z,27.9396,-96.8429,2.0,219.2181222,12.49449479,-99999.0,'11111222,11111222,99999999' 
TABS,ioos:station:wmo:42048:1,2001-07-04T13:30:00Z,27.9396,-96.8429,2.0,225.5707183,10.64248561,-99999.0,'11111222,11111222,99999999' 
TABS,ioos:station:wmo:42048:1,2001-07-04T14:00:00Z,27.9396,-96.8429,2.0,219.0553107,10.17340159,-99999.0,'11111222,11111222,99999999' 
TABS,ioos:station:wmo:42048:1,2001-07-04T14:30:00Z,27.9396,-96.8429,2.0,198.8759071,11.49838249,-99999.0,'11111222,11111222,99999999' 
TABS,ioos:station:wmo:42048:1,2001-07-04T15:00:00Z,27.9396,-96.8429,2.0,192.4147317,10.37255031,-99999.0,'11111222,11111222,99999999' 
TABS,ioos:station:wmo:42048:1,2001-07-04T15:30:00Z,27.9396,-96.8429,2.0,242.515264,12.26417547,-99999.0,'11111222,11111222,99999999' 
TABS,ioos:station:wmo:42048:1,2001-07-04T16:00:00Z,27.9396,-96.8429,2.0,223.0110511,12.22616866,-99999.0,'11111222,11111222,99999999' 